Regional Weather Roundup
Issued by NWS

Home | Current Version | Previous Version | Graphics & Text | Print | Product List | Glossary On
Versions: 1 2 3 4 5 6 7 8 9 10 11 12 13 14 15 16 17 18 19 20 21 22 23 24 25 26 27 28 29 30 31 32 33 34 35 36 37 38 39 40 41 42 43 44 45 46 47 48 49 50
893
ASUS44 KMEG 101410
RWRTN
TENNESSEE HOURLY STATE WEATHER ROUNDUP
NATIONAL WEATHER SERVICE MEMPHIS TN
800 AM CST WED FEB 10 2016

TNZ002-004-019-021-049-052-054-088>092-101500-
WEST TENNESSEE

CITY           SKY/WX    TMP DP  RH WIND       PRES   REMARKS
MEMPHIS INTL   MOSUNNY   27   9  46 NW12      30.29R WCI  17
NWS MEMPHIS      N/A     25 N/A N/A MISG        N/A
JACKSON        SUNNY     23  10  57 NW12      30.25R WCI  12
DYERSBURG      SUNNY     21   9  58 NW10      30.28R WCI  10
UNION CITY     SUNNY     19   7  58 NW9       30.23R WCI   9
PARIS          SUNNY     18   5  57 NW7       30.21R WCI   8
$$

TNZ008-025-027-028-033-062-065-066-101500-
NORTH MIDDLE TENNESSEE

CITY           SKY/WX    TMP DP  RH WIND       PRES   REMARKS
NASHVILLE      MOSUNNY   20   8  60 NW10      30.19R WCI   9
CLARKSVILLE    MOSUNNY   16   8  71 NW6       30.19R WCI   7
SMYRNA         MOSUNNY   18  10  70 NW8       30.20R WCI   8
COOKEVILLE     CLOUDY    18  10  73 NW10      30.11R WCI   6
CROSSVILLE     LGT SNOW  16   9  74 W12       30.02S WCI   3
$$

TNZ061-075-076-078-094-096-097-101500-
SOUTH MIDDLE TENNESSEE

CITY           SKY/WX    TMP DP  RH WIND       PRES   REMARKS
FAYETTEVILLE   CLOUDY    23  14  68 W8        30.15S WCI  14
TULLAHOMA      CLOUDY    19  14  79 NW12      30.12R WCI   7
WINCHESTER     CLOUDY    19  14  79 W9        30.13S WCI   9
MCMINNVILLE    CLOUDY    19  10  68 NW8       30.11R WCI   9
COLUMBIA       PTSUNNY   21  16  79 W6        30.16R WCI  14
SHELBYVILLE    CLOUDY    23  14  68 NW12      30.16R WCI  12
$$

TNZ017-018-042-046-047-101500-
NORTHEAST TENNESSEE

CITY           SKY/WX    TMP DP  RH WIND       PRES   REMARKS
TRI CITIES     CLOUDY    18   7  62 W14       29.99R WCI   4
$$

TNZ012-013-036-069-073-074-101500-
CENTRAL EAST TENNESSEE

CITY           SKY/WX    TMP DP  RH WIND       PRES   REMARKS
KNOXVILLE      PTSUNNY   20   9  62 SW9       30.09R WCI   9
OAK RIDGE      CLOUDY    21   8  57 VRB5      30.10R WCI  15
GATLINBURG     CLOUDY    18   7  62 VRB7      30.08R WCI   8
MORRISTOWN     CLOUDY    19   9  63 W10       30.03R WCI   8
$$

TNZ083-085-099-101500-
SOUTHEAST TENNESSEE

CITY           SKY/WX    TMP DP  RH WIND       PRES   REMARKS
CHATTANOOGA    PTSUNNY   24  14  65 SW7       30.14R WCI  16
$$

SKY/WX REPORTED AS FAIR MEANS FEW OR NO CLOUDS BELOW
12 THOUSAND FEET.





USA.gov is the U.S. government's official web portal to all federal, state and local government web resources and services.